Erneuerung der Klassenberechtigung SEP SP

Flugschule

Flugschule

Wir bieten eine professionelle und umfassende Ausbildung.

Flugwetter Augsburg

[Quelle: ADDS]
METAR
EDMA 211750Z 24006KT CAVOK 10/03 Q1012 =
EDMA 211700Z 2118/2203 25010KT 9999 SCT040 BECMG 2122/2124 28005KT
TAF
EDMA 211700Z 2118/2203 25010KT 9999 SCT040 BECMG 2122/2124 28005KT =

Kontakt

Erneuerung der Klassenberechtigung SEP SP

Auffrischungsschulung

Bei abgelaufenen Klassen-, Muster- und Instrumentenflugberechtigungen wird gemäß AMC1 FCL.625(c) und AMC1 FCL-740(b)(1) Auffrischungstraining vor der Prüfung notwendig.

Diese Tabelle soll einen Überblick darüber geben, was die Mindestanforderungen laut EASA Teil FCL sind.

Ablauf

Erneuerung Klassen- und Muster- berechtigungen

Erneuerung Instrumentenflug- berechtigung

Kombination (beides abgelaufen)
< 3 Monate nicht vorgeschrieben nicht vorgeschrieben nicht vorgeschrieben
> 3 Monate & < 1 Jahr 2 Trainingseinheiten 1 Trainingseinheit 3 Trainingseinheiten
> 1 Jahr & < 3 Jahre 3 Trainingseinheiten 3 Trainingseinheiten 6 Trainingseinheiten
> 3 Jahre & < 7 Jahre Neuerwerb (SEP 5h) 3 Trainingseinheiten 8 Trainingseinheiten
> 7 Jahre Neuerwerb (SEP 5h) Neuerwerb Neuerwerb